Weather History for Garden City, KS

Change the Weather History Date:

Tuesday, November 20, 2012

  Actual Average Record
Temperature  
Mean Temperature 50 °F 39 °F  
Max Temperature 70 °F 53 °F 78 °F (1955)
Min Temperature 29 °F 26 °F 11 °F (1985)
Degree Days  
Heating Degree Days 15 26  
Month to date heating degree days 323 420  
Since 1 July heating degree days 754 810  
Cooling Degree Days 0 0  
Month to date cooling degree days 0 0  
Year to date cooling degree days 1643 1298  
Moisture  
Dew Point 30 °F    
Average Humidity 49    
Maximum Humidity 75    
Minimum Humidity 23    
Precipitation  
Precipitation 0.00 in 0.02 in 0.29 in (2004)
Month to date precipitation 0.00 0.39  
Year to date precipitation 12.67 18.79  
Sea Level Pressure  
Sea Level Pressure 30.19 in    
Wind  
Wind Speed 8 mph (SSW)    
Max Wind Speed 17 mph    
Max Gust Speed 22 mph    
Visibility 10 miles    
Events      
T = Trace of Precipitation, MM = Missing Value Source: NWS Daily Summary

Daily Weather History Graph

Daily Weather History Graph

Search for Another Location

Airport:

Trip Planner

Search our weather history database for the weather conditions in past years. The results will help you decide how hot, cold, wet, or windy it might be!

Date:

Astronomy

Nov. 20, 2012 Rise Set
Actual Time 7:29 AM CST 5:27 PM CST
Civil Twilight 7:00 AM CST 5:56 PM CST
Nautical Twilight 6:28 AM CST 6:28 PM CST
Astronomical Twilight 5:57 AM CST 6:59 PM CST
Moon 1:08 PM CST (11/20) No Moon Set
Length of Visible Light 10h 55m
Length of Day
9h 58m
First Quarter, 51% of the Moon is Illuminated
Nov 20
First Quarter
Nov 28
Full
Dec 6
Last Quarter
Dec 13
New
Dec 19
First Quarter

Hourly Weather History & Observations

Time (CST) Temp. Windchill Dew Point Humidity Pressure Visibility Wind Dir Wind Speed Gust Speed Precip Events Conditions
12:54 AM 41.0 °F 34.7 °F 28.9 °F 62% 30.19 in 10.0 mi NW 10.4 mph - N/A   Clear
1:54 AM 37.9 °F 32.7 °F 27.0 °F 65% 30.18 in 10.0 mi NW 6.9 mph - N/A   Clear
2:54 AM 37.0 °F 31.6 °F 28.0 °F 70% 30.19 in 10.0 mi West 6.9 mph - N/A   Clear
3:54 AM 37.0 °F 31.0 °F 27.0 °F 67% 30.19 in 10.0 mi NNW 8.1 mph - N/A   Clear
4:54 AM 33.1 °F 26.9 °F 26.1 °F 75% 30.21 in 10.0 mi NW 6.9 mph - N/A   Clear
5:54 AM 39.0 °F 36.8 °F 28.0 °F 65% 30.22 in 10.0 mi NNW 3.5 mph - N/A   Clear
6:54 AM 32.0 °F 27.5 °F 25.0 °F 75% 30.25 in 10.0 mi West 4.6 mph - N/A   Clear
7:54 AM 33.1 °F 28.7 °F 25.0 °F 72% 30.27 in 10.0 mi NW 4.6 mph - N/A   Clear
8:54 AM 42.1 °F - 28.0 °F 58% 30.26 in 10.0 mi Calm Calm - N/A   Clear
9:54 AM 51.1 °F - 28.9 °F 43% 30.26 in 10.0 mi Calm Calm - N/A   Clear
10:54 AM 57.9 °F - 30.9 °F 36% 30.25 in 10.0 mi SSW 4.6 mph - N/A   Clear
11:54 AM 64.0 °F - 36.0 °F 35% 30.23 in 10.0 mi South 13.8 mph - N/A   Clear
12:54 PM 68.0 °F - 34.0 °F 28% 30.19 in 10.0 mi South 15.0 mph 20.7 mph N/A   Clear
1:54 PM 69.1 °F - 30.9 °F 24% 30.17 in 10.0 mi South 15.0 mph - N/A   Clear
2:54 PM 69.1 °F - 30.9 °F 24% 30.15 in 10.0 mi South 15.0 mph - N/A   Clear
3:54 PM 69.1 °F - 30.0 °F 23% 30.14 in 10.0 mi South 13.8 mph - N/A   Clear
4:54 PM 64.9 °F - 30.9 °F 28% 30.15 in 10.0 mi South 9.2 mph - N/A   Clear
5:54 PM 55.9 °F - 32.0 °F 40% 30.16 in 10.0 mi SSE 6.9 mph - N/A   Clear
6:54 PM 53.1 °F - 33.1 °F 47% 30.18 in 10.0 mi SSE 9.2 mph - N/A   Clear
7:54 PM 50.0 °F - 33.1 °F 52% 30.19 in 10.0 mi SSE 9.2 mph - N/A   Clear
8:54 PM 46.9 °F - 32.0 °F 56% 30.18 in 10.0 mi SSE 8.1 mph - N/A   Clear
9:54 PM 44.1 °F 40.8 °F 30.9 °F 60% 30.17 in 10.0 mi SSE 5.8 mph - N/A   Clear
10:54 PM 43.0 °F 38.2 °F 30.9 °F 62% 30.15 in 10.0 mi South 8.1 mph - N/A   Clear
11:54 PM 46.9 °F - 32.0 °F 56% 30.12 in 10.0 mi South 13.8 mph - N/A   Clear